Regional Weather Roundup
Issued by NWS Kansas City/Pleasant Hill, MO

Home | Current Version | Previous Version | Text Only | Print | Product List | Glossary On
Versions: 1 2 3 4 5 6 7 8 9 10 11 12 13 14 15 16 17 18 19 20 21 22 23 24 25 26 27 28 29 30 31 32 33 34 35 36 37 38 39 40 41 42 43 44 45 46 47 48 49 50
000
ASUS43 KEAX 021704
RWREAX

WEATHER ROUNDUP FOR EASTERN KANSAS AND NORTHWEST MISSOURI
NATIONAL WEATHER SERVICE KANSAS CITY/PLEASANT HILL MO
1100 AM CST MON MAR 02 2015

KSZ040-057-103>105-MOZ028-029-037-043-021800-
...KANSAS CITY METROPOLITAN AREA...

CITY           SKY/WX    TMP DP  RH WIND       PRES   REMARKS
K.C. INTL      CLOUDY    37  23  56 S15       30.46F WCI  28
K.C. DOWNTOWN  MOSUNNY   38  22  52 SE13      30.48S WCI  30
LEES SUMMIT    MOSUNNY   33  20  58 SE8       30.48S WCI  26
OLATHE - IXD   MOSUNNY   33  23  66 SE13      30.47F WCI  24
OLATHE - OJC   MOSUNNY   34  22  61 SE10      30.46S WCI  26
LAWRENCE       MOSUNNY   35  24  64 SE12      30.47F WCI  27

$$

MOZ001>008-011>017-020>025-030>033-038>040-044>046-053-054-021800-
...NORTHERN AND CENTRAL MISSOURI...

CITY           SKY/WX    TMP DP  RH WIND       PRES   REMARKS
ST. JOSEPH     MOSUNNY   36  23  59 SE8       30.48F WCI  30
MOSBY          MOSUNNY   34  25  69 SE7       30.49F WCI  28
WARRENSBURG    MOSUNNY   34  23  64 E8        30.49F WCI  27
WHITEMAN AFB   PTSUNNY   32  21  65 E3        30.47F
CLINTON        MOSUNNY   32  23  69 SE9       30.49F WCI  24
SEDALIA        FLURRIES  31  22  69 E10       30.49F WCI  22
WARSAW         NOT AVBL
MARSHALL       MOSUNNY   27  27 100 CALM      30.53F FOG
CHILLICOTHE      N/A     32  22  66 E8        30.51F WCI  25
MOBERLY        MOSUNNY   36  18  48 E7        30.52F WCI  30
KIRKSVILLE       N/A     27  17  66 E6        30.51F WCI  20

$$

MOZ041-047>049-056>058-063>065-088>090-097-021800-
...EASTERN AND SOUTHERN MISSOURI...

CITY           SKY/WX    TMP DP  RH WIND       PRES   REMARKS
ST. LOUIS INTL MOSUNNY   33  17  51 E9        30.54F WCI  25
SPIRIT OF STL  SUNNY     32  19  58 NE8       30.53F WCI  25
COLUMBIA       SUNNY     32  18  56 SE9       30.49F WCI  24
JEFFERSON CITY SUNNY     28  21  75 SE6       30.51F WCI  22
MEXICO         MOSUNNY   32  27  80 CALM      30.51F
HANNIBAL       PTSUNNY   37  16  41 E5        30.52F WCI  34
ROLLA          SUNNY     30  18  60 E10       30.46F WCI  21
LEBANON        SUNNY     36  19  51 E12G17    30.44F WCI  27
OSAGE BEACH    SUNNY     34  19  55 E10G17    30.48F WCI  26
SPRINGFIELD    MOSUNNY   35  15  44 E21       30.42F WCI  24
BRANSON        CLOUDY    32  23  69 SE12      30.44F WCI  23
NEVADA         MOSUNNY   32  21  64 E14       30.46F WCI  22
JOPLIN         PTSUNNY   36  17  46 E18G24    30.41F WCI  26
WEST PLAINS    MOSUNNY   33  18  53 E7        30.45F WCI  27

$$

IAZ060-094-KSZ022-034>040-054-083-096-NEZ052-066-093-021800-
...KANSAS...SOUTHEAST NEBRASKA AND IOWA...

CITY           SKY/WX    TMP DP  RH WIND       PRES   REMARKS
TOPEKA         MOSUNNY   35  23  61 SE12      30.46F WCI  27
MANHATTAN      PTSUNNY   36  23  59 SE10      30.42F WCI  28
EMPORIA        PTSUNNY   33  23  66 SE16G22   30.40F WCI  23
CHANUTE        PTSUNNY   34  22  61 E12       30.43F WCI  25
WICHITA        CLOUDY    32  19  58 E16       30.38F WCI  21
OMAHA          CLOUDY    30  18  60 SE10      30.44F WCI  21
LINCOLN        CLOUDY    35  21  56 S8        30.40F WCI  29
FALLS CITY     PTSUNNY   39  23  52 S13G21    30.44F WCI  31
LAMONI         PTSUNNY   29  18  63 E5        30.47F WCI  24
DES MOINES     CLOUDY    28  12  51 SE7       30.49F WCI  21

$$




USA.gov is the U.S. government's official web portal to all federal, state and local government web resources and services.